291  
ASUS43 KIND 231959  
RWRIN  
 
WEATHER ROUNDUP FOR INDIANA  
NATIONAL WEATHER SERVICE INDIANAPOLIS IN  
300 PM EST SUN FEB 23 2020  
 
NOTE: "FAIR" INDICATES FEW OR NO CLOUDS BELOW 12,000 FEET WITH NO  
SIGNIFICANT WEATHER AND/OR S TO VISIBILITY
.  
 
* - STATION DOES NOT REPORT WEATHER SUCH AS PRECIPITATION OR FOG.
 
 
+ - STATION NOT QUALITY CONTROLLED BY THE NATIONAL WEATHER SERVICE.  
USE DATA WITH CAUTION...ESPECIALLY DEWPOINT AND RELATIVE  
HUMIDITY OBSERVATIONS.  
 
INZ001>003-010>013-019-020-232100-  
NORTHWEST INDIANA  
 
CITY SKY/WX TMP DP RH WIND PRES REMARKS
 
GARY /AIRPORT/ MOSUNNY 55 30 38 SW14 29.93F  
MONTICELLO + FAIR 53 32 44 SW12G17 29.96F  
 

 
 
LMZ046-743>745-232100-  
SOUTHERN LAKE MICHIGAN  
 
STATION/POSITION TIME TEMP WIND PRES WAVE
 
AIR SEA DIR/SP/G HT  
(UTC) (F) (DEG/KT/KT) (MB) (FT)  
MICHIGAN CITY 1930 48 230/ 12/ 13 N/A  
 

 
 
INZ004-005-014>016-021>024-232100-  
NORTH CENTRAL INDIANA  
 
CITY SKY/WX TMP DP RH WIND PRES REMARKS
 
GOSHEN FAIR 52 33 48 SW16 29.93F  
PERU/GRISSOM FAIR 54 34 47 SW18 29.96F  
SOUTH BEND FAIR 54 34 46 SW16G23 29.93F  
 

 
 
INZ006>009-017-018-025>027-232100-  
NORTHEAST INDIANA  
 
CITY SKY/WX TMP DP RH WIND PRES REMARKS
 
FORT WAYNE FAIR 51 32 48 SW17 29.97F  
KENDALLVILLE + FAIR 51 30 44 SW15G21 29.94F  
 

 
 
INZ028-029-035-036-043>045-051>053-232100-  
WEST CENTRAL INDIANA  
 
CITY SKY/WX TMP DP RH WIND PRES REMARKS
 
CRAWFORDSVL + FAIR 50 33 51 S13 30.00F  
LAFAYETTE FAIR 54 33 45 SW12G20 29.98F  
TERRE HAUTE FAIR 54 34 46 S7 30.02F  
 

 
 
INZ030>032-037>040-046>048-054>057-064-065-232100-  
CENTRAL INDIANA  
 
CITY SKY/WX TMP DP RH WIND PRES REMARKS
 
COLUMBUS CLOUDY 50 25 37 SW12 30.06F  
INDIANAPOLIS FAIR 53 30 41 S13 30.02F  
-EAGLE CREEK FAIR 53 30 41 SW9 30.01F  
KOKOMO + FAIR 52 35 52 SW18 29.99F  
SHELBYVILLE FAIR 52 27 38 S14 30.03F  
 

 
 
INZ033-034-041-042-049-050-058-059-232100-  
EAST CENTRAL INDIANA  
 
CITY SKY/WX TMP DP RH WIND PRES REMARKS
 
MUNCIE FAIR 53 30 41 S13G23 29.99F  
PORTLAND + FAIR 52 21 30 SW13G20 29.99F  
RICHMOND + FAIR 46 28 49 SW15 30.04F  
 

 
 
INZ060-061-067>069-081>083-085>088-232100-  
SOUTHWEST INDIANA  
 
CITY SKY/WX TMP DP RH WIND PRES REMARKS
 
EVANSVILLE CLOUDY 53 31 42 S9 30.09F  
HUNTINGBURG + FAIR 54 32 43 S7 30.08F  
 

 
 
INZ062-063-066-070>080-084-089>092-232100-  
SOUTH CENTRAL AND SOUTHEAST INDIANA  
 
CITY SKY/WX TMP DP RH WIND PRES REMARKS
 
BEDFORD + N/A 55 23 28 SW8 30.06F  
BLOOMINGTON FAIR 54 29 38 S9 30.04F  
 

 
 
 
 
CLICK HERE TO GO TO PREVIOUS BULLETINS.

The Nexlab IN Page Main Text Page